Year,Month,Day,Hour,Minute,Value (Times are PST for insolation in W/m^2)
2019,10,08,00,00,0.00
2019,10,08,00,01,0.00
2019,10,08,00,02,0.00
2019,10,08,00,03,0.00
2019,10,08,00,04,0.00
2019,10,08,00,05,0.00
2019,10,08,00,06,0.00
2019,10,08,00,07,0.00
2019,10,08,00,08,0.00
2019,10,08,00,09,0.00
2019,10,08,00,10,0.00
2019,10,08,00,11,0.00
2019,10,08,00,12,0.00
2019,10,08,00,13,0.00
2019,10,08,00,14,0.00
2019,10,08,00,15,0.00
2019,10,08,00,16,0.00
2019,10,08,00,17,0.00
2019,10,08,00,18,0.00
2019,10,08,00,19,0.00
2019,10,08,00,20,0.00
2019,10,08,00,21,0.00
2019,10,08,00,22,0.00
2019,10,08,00,23,0.00
2019,10,08,00,24,0.00
2019,10,08,00,25,0.00
2019,10,08,00,26,0.00
2019,10,08,00,27,0.00
2019,10,08,00,28,0.00
2019,10,08,00,29,0.00
2019,10,08,00,30,0.00
2019,10,08,00,31,0.00
2019,10,08,00,32,0.00
2019,10,08,00,33,0.00
2019,10,08,00,34,0.00
2019,10,08,00,35,0.00
2019,10,08,00,36,0.00
2019,10,08,00,37,0.00
2019,10,08,00,38,0.00
2019,10,08,00,39,0.00
2019,10,08,00,40,0.00
2019,10,08,00,41,0.00
2019,10,08,00,42,0.00
2019,10,08,00,43,0.00
2019,10,08,00,44,0.00
2019,10,08,00,45,0.00
2019,10,08,00,46,0.00
2019,10,08,00,47,0.00
2019,10,08,00,48,0.00
2019,10,08,00,49,0.00
2019,10,08,00,50,0.00
2019,10,08,00,51,0.00
2019,10,08,00,52,0.00
2019,10,08,00,53,0.00
2019,10,08,00,54,0.00
2019,10,08,00,55,0.00
2019,10,08,00,56,0.00
2019,10,08,00,57,0.00
2019,10,08,00,58,0.00
2019,10,08,00,59,0.00
2019,10,08,01,00,0.00
2019,10,08,01,01,0.00
2019,10,08,01,02,0.00
2019,10,08,01,03,0.00
2019,10,08,01,04,0.00
2019,10,08,01,05,0.00
2019,10,08,01,06,0.00
2019,10,08,01,07,0.00
2019,10,08,01,08,0.00
2019,10,08,01,09,0.00
2019,10,08,01,10,0.00
2019,10,08,01,11,0.00
2019,10,08,01,12,0.00
2019,10,08,01,13,0.00
2019,10,08,01,14,0.00
2019,10,08,01,15,0.00
2019,10,08,01,16,0.00
2019,10,08,01,17,0.00
2019,10,08,01,18,0.00
2019,10,08,01,19,0.00
2019,10,08,01,20,0.00
2019,10,08,01,21,0.00
2019,10,08,01,22,0.00
2019,10,08,01,23,0.00
2019,10,08,01,24,0.00
2019,10,08,01,25,0.00
2019,10,08,01,26,0.00
2019,10,08,01,27,0.00
2019,10,08,01,28,0.00
2019,10,08,01,29,0.00
2019,10,08,01,30,0.00
2019,10,08,01,31,0.00
2019,10,08,01,32,0.00
2019,10,08,01,33,0.00
2019,10,08,01,34,0.00
2019,10,08,01,35,0.00
2019,10,08,01,36,0.00
2019,10,08,01,37,0.00
2019,10,08,01,38,0.00
2019,10,08,01,39,0.00
2019,10,08,01,40,0.00
2019,10,08,01,41,0.00
2019,10,08,01,42,0.00
2019,10,08,01,43,0.00
2019,10,08,01,44,0.00
2019,10,08,01,45,0.00
2019,10,08,01,46,0.00
2019,10,08,01,47,0.00
2019,10,08,01,48,0.00
2019,10,08,01,49,0.00
2019,10,08,01,50,0.00
2019,10,08,01,51,0.00
2019,10,08,01,52,0.00
2019,10,08,01,53,0.00
2019,10,08,01,54,0.00
2019,10,08,01,55,0.00
2019,10,08,01,56,0.00
2019,10,08,01,57,0.00
2019,10,08,01,58,0.00
2019,10,08,01,59,0.00
2019,10,08,02,00,0.00
2019,10,08,02,01,0.00
2019,10,08,02,02,0.00
2019,10,08,02,03,0.00
2019,10,08,02,04,0.00
2019,10,08,02,05,0.00
2019,10,08,02,06,0.00
2019,10,08,02,07,0.00
2019,10,08,02,08,0.00
2019,10,08,02,09,0.00
2019,10,08,02,10,0.00
2019,10,08,02,11,0.00
2019,10,08,02,12,0.00
2019,10,08,02,13,0.00
2019,10,08,02,14,0.00
2019,10,08,02,15,0.00
2019,10,08,02,16,0.00
2019,10,08,02,17,0.00
2019,10,08,02,18,0.00
2019,10,08,02,19,0.00
2019,10,08,02,20,0.00
2019,10,08,02,21,0.00
2019,10,08,02,22,0.00
2019,10,08,02,23,0.00
2019,10,08,02,24,0.00
2019,10,08,02,25,0.00
2019,10,08,02,26,0.00
2019,10,08,02,27,0.00
2019,10,08,02,28,0.00
2019,10,08,02,29,0.00
2019,10,08,02,30,0.00
2019,10,08,02,31,0.00
2019,10,08,02,32,0.00
2019,10,08,02,33,0.00
2019,10,08,02,34,0.00
2019,10,08,02,35,0.00
2019,10,08,02,36,0.00
2019,10,08,02,37,0.00
2019,10,08,02,38,0.00
2019,10,08,02,39,0.00
2019,10,08,02,40,0.00
2019,10,08,02,41,0.00
2019,10,08,02,42,0.00
2019,10,08,02,43,0.00
2019,10,08,02,44,0.00
2019,10,08,02,45,0.00
2019,10,08,02,46,0.00
2019,10,08,02,47,0.00
2019,10,08,02,48,0.00
2019,10,08,02,49,0.00
2019,10,08,02,50,0.00
2019,10,08,02,51,0.00
2019,10,08,02,52,0.00
2019,10,08,02,53,0.00
2019,10,08,02,54,0.00
2019,10,08,02,55,0.00
2019,10,08,02,56,0.00
2019,10,08,02,57,0.00
2019,10,08,02,58,0.00
2019,10,08,02,59,0.00
2019,10,08,03,00,0.00
2019,10,08,03,01,0.00
2019,10,08,03,02,0.00
2019,10,08,03,03,0.00
2019,10,08,03,04,0.00
2019,10,08,03,05,0.00
2019,10,08,03,06,0.00
2019,10,08,03,07,0.00
2019,10,08,03,08,0.00
2019,10,08,03,09,0.00
2019,10,08,03,10,0.00
2019,10,08,03,11,0.00
2019,10,08,03,12,0.00
2019,10,08,03,13,0.00
2019,10,08,03,14,0.00
2019,10,08,03,15,0.00
2019,10,08,03,16,0.00
2019,10,08,03,17,0.00
2019,10,08,03,18,0.00
2019,10,08,03,19,0.00
2019,10,08,03,20,0.00
2019,10,08,03,21,0.00
2019,10,08,03,22,0.00
2019,10,08,03,23,0.00
2019,10,08,03,24,0.00
2019,10,08,03,25,0.00
2019,10,08,03,26,0.00
2019,10,08,03,27,0.00
2019,10,08,03,28,0.00
2019,10,08,03,29,0.00
2019,10,08,03,30,0.00
2019,10,08,03,31,0.00
2019,10,08,03,32,0.00
2019,10,08,03,33,0.00
2019,10,08,03,34,0.00
2019,10,08,03,35,0.00
2019,10,08,03,36,0.00
2019,10,08,03,37,0.00
2019,10,08,03,38,0.00
2019,10,08,03,39,0.00
2019,10,08,03,40,0.00
2019,10,08,03,41,0.00
2019,10,08,03,42,0.00
2019,10,08,03,43,0.00
2019,10,08,03,44,0.00
2019,10,08,03,45,0.00
2019,10,08,03,46,0.00
2019,10,08,03,47,0.00
2019,10,08,03,48,0.00
2019,10,08,03,49,0.00
2019,10,08,03,50,0.00
2019,10,08,03,51,0.00
2019,10,08,03,52,0.00
2019,10,08,03,53,0.00
2019,10,08,03,54,0.00
2019,10,08,03,55,0.00
2019,10,08,03,56,0.00
2019,10,08,03,57,0.00
2019,10,08,03,58,0.00
2019,10,08,03,59,0.00
2019,10,08,04,00,0.00
2019,10,08,04,01,0.00
2019,10,08,04,02,0.00
2019,10,08,04,03,0.00
2019,10,08,04,04,0.00
2019,10,08,04,05,0.00
2019,10,08,04,06,0.00
2019,10,08,04,07,0.00
2019,10,08,04,08,0.00
2019,10,08,04,09,0.00
2019,10,08,04,10,0.00
2019,10,08,04,11,0.00
2019,10,08,04,12,0.00
2019,10,08,04,13,0.00
2019,10,08,04,14,0.00
2019,10,08,04,15,0.00
2019,10,08,04,16,0.00
2019,10,08,04,17,0.00
2019,10,08,04,18,0.00
2019,10,08,04,19,0.00
2019,10,08,04,20,0.00
2019,10,08,04,21,0.00
2019,10,08,04,22,0.00
2019,10,08,04,23,0.00
2019,10,08,04,24,0.00
2019,10,08,04,25,0.00
2019,10,08,04,26,0.00
2019,10,08,04,27,0.00
2019,10,08,04,28,0.00
2019,10,08,04,29,0.00
2019,10,08,04,30,0.00
2019,10,08,04,31,0.00
2019,10,08,04,32,0.00
2019,10,08,04,33,0.00
2019,10,08,04,34,0.00
2019,10,08,04,35,0.00
2019,10,08,04,36,0.00
2019,10,08,04,37,0.00
2019,10,08,04,38,0.00
2019,10,08,04,39,0.00
2019,10,08,04,40,0.00
2019,10,08,04,41,0.00
2019,10,08,04,42,0.00
2019,10,08,04,43,0.00
2019,10,08,04,44,0.00
2019,10,08,04,45,0.00
2019,10,08,04,46,0.00
2019,10,08,04,47,0.00
2019,10,08,04,48,0.00
2019,10,08,04,49,0.00
2019,10,08,04,50,0.00
2019,10,08,04,51,0.00
2019,10,08,04,52,0.00
2019,10,08,04,53,0.00
2019,10,08,04,54,0.00
2019,10,08,04,55,0.00
2019,10,08,04,56,0.00
2019,10,08,04,57,0.00
2019,10,08,04,58,0.00
2019,10,08,04,59,0.00
2019,10,08,05,00,0.00
2019,10,08,05,01,0.00
2019,10,08,05,02,0.00
2019,10,08,05,03,0.00
2019,10,08,05,04,0.00
2019,10,08,05,05,0.00
2019,10,08,05,06,0.00
2019,10,08,05,07,0.00
2019,10,08,05,08,0.00
2019,10,08,05,09,0.00
2019,10,08,05,10,0.00
2019,10,08,05,11,0.00
2019,10,08,05,12,0.00
2019,10,08,05,13,0.00
2019,10,08,05,14,0.00
2019,10,08,05,15,0.00
2019,10,08,05,16,0.00
2019,10,08,05,17,0.00
2019,10,08,05,18,0.00
2019,10,08,05,19,0.00
2019,10,08,05,20,0.00
2019,10,08,05,21,0.00
2019,10,08,05,22,0.00
2019,10,08,05,23,0.00
2019,10,08,05,24,0.00
2019,10,08,05,25,0.00
2019,10,08,05,26,0.00
2019,10,08,05,27,0.00
2019,10,08,05,28,0.00
2019,10,08,05,29,0.00
2019,10,08,05,30,0.00
2019,10,08,05,31,0.00
2019,10,08,05,32,0.00
2019,10,08,05,33,0.00
2019,10,08,05,34,0.00
2019,10,08,05,35,0.00
2019,10,08,05,36,0.00
2019,10,08,05,37,0.00
2019,10,08,05,38,0.00
2019,10,08,05,39,0.00
2019,10,08,05,40,0.00
2019,10,08,05,41,0.00
2019,10,08,05,42,0.00
2019,10,08,05,43,0.00
2019,10,08,05,44,0.00
2019,10,08,05,45,0.00
2019,10,08,05,46,0.00
2019,10,08,05,47,0.00
2019,10,08,05,48,0.00
2019,10,08,05,49,0.00
2019,10,08,05,50,0.00
2019,10,08,05,51,0.00
2019,10,08,05,52,0.00
2019,10,08,05,53,0.00
2019,10,08,05,54,0.00
2019,10,08,05,55,0.00
2019,10,08,05,56,0.00
2019,10,08,05,57,0.00
2019,10,08,05,58,0.00
2019,10,08,05,59,0.00
2019,10,08,06,00,0.00
2019,10,08,06,01,0.00
2019,10,08,06,02,0.00
2019,10,08,06,03,0.00
2019,10,08,06,04,0.00
2019,10,08,06,05,0.00
2019,10,08,06,06,0.00
2019,10,08,06,07,0.00
2019,10,08,06,08,0.00
2019,10,08,06,09,0.00
2019,10,08,06,10,0.00
2019,10,08,06,11,0.00
2019,10,08,06,12,0.00
2019,10,08,06,13,0.00
2019,10,08,06,14,0.00
2019,10,08,06,15,0.00
2019,10,08,06,16,0.00
2019,10,08,06,17,0.00
2019,10,08,06,18,0.00
2019,10,08,06,19,0.00
2019,10,08,06,20,0.00
2019,10,08,06,21,0.00
2019,10,08,06,22,0.00
2019,10,08,06,23,0.00
2019,10,08,06,24,0.00
2019,10,08,06,25,0.00
2019,10,08,06,26,0.00
2019,10,08,06,27,0.00
2019,10,08,06,28,0.00
2019,10,08,06,29,0.00
2019,10,08,06,30,0.00
2019,10,08,06,31,0.00
2019,10,08,06,32,0.00
2019,10,08,06,33,0.00
2019,10,08,06,34,0.00
2019,10,08,06,35,0.00
2019,10,08,06,36,0.00
2019,10,08,06,37,0.00
2019,10,08,06,38,0.00
2019,10,08,06,39,0.00
2019,10,08,06,40,0.00
2019,10,08,06,41,0.00
2019,10,08,06,42,0.00
2019,10,08,06,43,0.00
2019,10,08,06,44,0.00
2019,10,08,06,45,0.00
2019,10,08,06,46,0.00
2019,10,08,06,47,0.00
2019,10,08,06,48,0.00
2019,10,08,06,49,0.00
2019,10,08,06,50,0.00
2019,10,08,06,51,0.00
2019,10,08,06,52,0.00
2019,10,08,06,53,0.00
2019,10,08,06,54,0.00
2019,10,08,06,55,0.00
2019,10,08,06,56,0.00
2019,10,08,06,57,0.00
2019,10,08,06,58,0.00
2019,10,08,06,59,0.00
2019,10,08,07,00,0.00
2019,10,08,07,01,0.00
2019,10,08,07,02,0.00
2019,10,08,07,03,0.00
2019,10,08,07,04,0.00
2019,10,08,07,05,0.00
2019,10,08,07,06,0.00
2019,10,08,07,07,0.00
2019,10,08,07,08,0.00
2019,10,08,07,09,0.00
2019,10,08,07,10,0.00
2019,10,08,07,11,0.00
2019,10,08,07,12,0.00
2019,10,08,07,13,0.00
2019,10,08,07,14,0.00
2019,10,08,07,15,0.00
2019,10,08,07,16,0.00
2019,10,08,07,17,0.00
2019,10,08,07,18,0.00
2019,10,08,07,19,0.00
2019,10,08,07,20,0.00
2019,10,08,07,21,0.00
2019,10,08,07,22,0.00
2019,10,08,07,23,0.00
2019,10,08,07,24,0.00
2019,10,08,07,25,0.00
2019,10,08,07,26,0.00
2019,10,08,07,27,0.00
2019,10,08,07,28,2.10
2019,10,08,07,29,5.00
2019,10,08,07,30,5.00
2019,10,08,07,31,5.00
2019,10,08,07,32,5.00
2019,10,08,07,33,5.00
2019,10,08,07,34,5.00
2019,10,08,07,35,5.80
2019,10,08,07,36,7.00
2019,10,08,07,37,7.00
2019,10,08,07,38,7.00
2019,10,08,07,39,7.00
2019,10,08,07,40,7.40
2019,10,08,07,41,9.00
2019,10,08,07,42,9.00
2019,10,08,07,43,9.00
2019,10,08,07,44,9.00
2019,10,08,07,45,10.70
2019,10,08,07,46,11.00
2019,10,08,07,47,11.00
2019,10,08,07,48,11.00
2019,10,08,07,49,11.40
2019,10,08,07,50,12.00
2019,10,08,07,51,12.00
2019,10,08,07,52,13.60
2019,10,08,07,53,15.90
2019,10,08,07,54,16.00
2019,10,08,07,55,16.90
2019,10,08,07,56,19.80
2019,10,08,07,57,22.10
2019,10,08,07,58,24.40
2019,10,08,07,59,25.90
2019,10,08,08,00,28.10
2019,10,08,08,01,32.60
2019,10,08,08,02,35.70
2019,10,08,08,03,37.00
2019,10,08,08,04,38.20
2019,10,08,08,05,39.00
2019,10,08,08,06,39.00
2019,10,08,08,07,43.50
2019,10,08,08,08,44.40
2019,10,08,08,09,46.00
2019,10,08,08,10,46.00
2019,10,08,08,11,46.00
2019,10,08,08,12,46.00
2019,10,08,08,13,46.00
2019,10,08,08,14,44.20
2019,10,08,08,15,44.00
2019,10,08,08,16,44.00
2019,10,08,08,17,43.10
2019,10,08,08,18,43.20
2019,10,08,08,19,44.00
2019,10,08,08,20,40.00
2019,10,08,08,21,39.00
2019,10,08,08,22,39.00
2019,10,08,08,23,37.80
2019,10,08,08,24,35.00
2019,10,08,08,25,35.00
2019,10,08,08,26,35.00
2019,10,08,08,27,36.60
2019,10,08,08,28,37.40
2019,10,08,08,29,44.60
2019,10,08,08,30,47.60
2019,10,08,08,31,49.00
2019,10,08,08,32,49.00
2019,10,08,08,33,49.00
2019,10,08,08,34,52.40
2019,10,08,08,35,53.00
2019,10,08,08,36,54.00
2019,10,08,08,37,53.70
2019,10,08,08,38,51.20
2019,10,08,08,39,49.00
2019,10,08,08,40,49.00
2019,10,08,08,41,39.30
2019,10,08,08,42,36.80
2019,10,08,08,43,33.00
2019,10,08,08,44,34.20
2019,10,08,08,45,38.20
2019,10,08,08,46,41.10
2019,10,08,08,47,43.40
2019,10,08,08,48,45.70
2019,10,08,08,49,46.90
2019,10,08,08,50,47.00
2019,10,08,08,51,47.00
2019,10,08,08,52,47.00
2019,10,08,08,53,46.40
2019,10,08,08,54,46.00
2019,10,08,08,55,44.30
2019,10,08,08,56,44.00
2019,10,08,08,57,44.00
2019,10,08,08,58,44.00
2019,10,08,08,59,41.90
2019,10,08,09,00,39.00
2019,10,08,09,01,39.00
2019,10,08,09,02,39.00
2019,10,08,09,03,39.00
2019,10,08,09,04,39.60
2019,10,08,09,05,42.00
2019,10,08,09,06,43.70
2019,10,08,09,07,47.70
2019,10,08,09,08,51.80
2019,10,08,09,09,53.00
2019,10,08,09,10,53.30
2019,10,08,09,11,58.00
2019,10,08,09,12,58.00
2019,10,08,09,13,58.00
2019,10,08,09,14,58.00
2019,10,08,09,15,97.20
2019,10,08,09,16,119.90
2019,10,08,09,17,121.00
2019,10,08,09,18,124.60
2019,10,08,09,19,139.00
2019,10,08,09,20,163.40
2019,10,08,09,21,147.80
2019,10,08,09,22,105.00
2019,10,08,09,23,105.00
2019,10,08,09,24,105.00
2019,10,08,09,25,105.00
2019,10,08,09,26,105.00
2019,10,08,09,27,154.10
2019,10,08,09,28,215.10
2019,10,08,09,29,250.90
2019,10,08,09,30,267.00
2019,10,08,09,31,268.10
2019,10,08,09,32,286.60
2019,10,08,09,33,266.00
2019,10,08,09,34,253.00
2019,10,08,09,35,253.00
2019,10,08,09,36,253.00
2019,10,08,09,37,253.00
2019,10,08,09,38,88.20
2019,10,08,09,39,79.00
2019,10,08,09,40,79.00
2019,10,08,09,41,179.40
2019,10,08,09,42,303.10
2019,10,08,09,43,304.00
2019,10,08,09,44,173.60
2019,10,08,09,45,141.00
2019,10,08,09,46,141.00
2019,10,08,09,47,126.50
2019,10,08,09,48,95.00
2019,10,08,09,49,92.00
2019,10,08,09,50,90.00
2019,10,08,09,51,98.00
2019,10,08,09,52,100.50
2019,10,08,09,53,105.00
2019,10,08,09,54,100.50
2019,10,08,09,55,92.90
2019,10,08,09,56,107.40
2019,10,08,09,57,112.50
2019,10,08,09,58,120.60
2019,10,08,09,59,124.30
2019,10,08,10,00,148.00
2019,10,08,10,01,148.00
2019,10,08,10,02,148.00
2019,10,08,10,03,158.40
2019,10,08,10,04,118.00
2019,10,08,10,05,97.00
2019,10,08,10,06,97.20
2019,10,08,10,07,100.00
2019,10,08,10,08,101.30
2019,10,08,10,09,104.00
2019,10,08,10,10,104.00
2019,10,08,10,11,125.00
2019,10,08,10,12,130.60
2019,10,08,10,13,130.00
2019,10,08,10,14,121.20
2019,10,08,10,15,86.00
2019,10,08,10,16,86.00
2019,10,08,10,17,92.30
2019,10,08,10,18,102.30
2019,10,08,10,19,108.20
2019,10,08,10,20,117.10
2019,10,08,10,21,118.00
2019,10,08,10,22,142.90
2019,10,08,10,23,197.00
2019,10,08,10,24,153.00
2019,10,08,10,25,120.00
2019,10,08,10,26,120.00
2019,10,08,10,27,144.90
2019,10,08,10,28,153.70
2019,10,08,10,29,169.00
2019,10,08,10,30,178.40
2019,10,08,10,31,198.00
2019,10,08,10,32,214.30
2019,10,08,10,33,218.00
2019,10,08,10,34,244.80
2019,10,08,10,35,227.00
2019,10,08,10,36,227.00
2019,10,08,10,37,207.40
2019,10,08,10,38,178.00
2019,10,08,10,39,157.20
2019,10,08,10,40,134.70
2019,10,08,10,41,130.90
2019,10,08,10,42,111.00
2019,10,08,10,43,102.90
2019,10,08,10,44,86.10
2019,10,08,10,45,84.00
2019,10,08,10,46,84.00
2019,10,08,10,47,84.00
2019,10,08,10,48,55.90
2019,10,08,10,49,48.40
2019,10,08,10,50,45.30
2019,10,08,10,51,42.10
2019,10,08,10,52,39.50
2019,10,08,10,53,39.00
2019,10,08,10,54,39.00
2019,10,08,10,55,35.20
2019,10,08,10,56,34.40
2019,10,08,10,57,32.00
2019,10,08,10,58,32.00
2019,10,08,10,59,32.00
2019,10,08,11,00,32.00
2019,10,08,11,01,32.00
2019,10,08,11,02,32.90
2019,10,08,11,03,34.30
2019,10,08,11,04,41.40
2019,10,08,11,05,44.00
2019,10,08,11,06,44.00
2019,10,08,11,07,46.10
2019,10,08,11,08,47.00
2019,10,08,11,09,50.80
2019,10,08,11,10,53.10
2019,10,08,11,11,64.80
2019,10,08,11,12,73.30
2019,10,08,11,13,80.80
2019,10,08,11,14,88.20
2019,10,08,11,15,90.00
2019,10,08,11,16,101.40
2019,10,08,11,17,105.20
2019,10,08,11,18,119.50
2019,10,08,11,19,123.00
2019,10,08,11,20,134.60
2019,10,08,11,21,144.00
2019,10,08,11,22,144.00
2019,10,08,11,23,147.70
2019,10,08,11,24,180.10
2019,10,08,11,25,169.00
2019,10,08,11,26,160.90
2019,10,08,11,27,148.20
2019,10,08,11,28,142.50
2019,10,08,11,29,137.60
2019,10,08,11,30,140.60
2019,10,08,11,31,141.00
2019,10,08,11,32,143.40
2019,10,08,11,33,148.00
2019,10,08,11,34,177.70
2019,10,08,11,35,150.70
2019,10,08,11,36,121.60
2019,10,08,11,37,124.80
2019,10,08,11,38,125.00
2019,10,08,11,39,132.30
2019,10,08,11,40,148.00
2019,10,08,11,41,148.00
2019,10,08,11,42,409.80
2019,10,08,11,43,522.00
2019,10,08,11,44,522.00
2019,10,08,11,45,518.20
2019,10,08,11,46,506.40
2019,10,08,11,47,510.20
2019,10,08,11,48,508.00
2019,10,08,11,49,508.00
2019,10,08,11,50,508.00
2019,10,08,11,51,508.10
2019,10,08,11,52,510.00
2019,10,08,11,53,510.90
2019,10,08,11,54,513.00
2019,10,08,11,55,513.00
2019,10,08,11,56,513.00
2019,10,08,11,57,516.40
2019,10,08,11,58,518.90
2019,10,08,11,59,519.60
2019,10,08,12,00,522.60
2019,10,08,12,01,524.00
2019,10,08,12,02,525.80
2019,10,08,12,03,528.40
2019,10,08,12,04,529.00
2019,10,08,12,05,539.90
2019,10,08,12,06,541.00
2019,10,08,12,07,541.00
2019,10,08,12,08,565.20
2019,10,08,12,09,599.20
2019,10,08,12,10,605.00
2019,10,08,12,11,605.00
2019,10,08,12,12,605.00
2019,10,08,12,13,605.00
2019,10,08,12,14,605.00
2019,10,08,12,15,605.00
2019,10,08,12,16,605.00
2019,10,08,12,17,605.00
2019,10,08,12,18,605.00
2019,10,08,12,19,455.90
2019,10,08,12,20,413.20
2019,10,08,12,21,252.60
2019,10,08,12,22,213.00
2019,10,08,12,23,213.00
2019,10,08,12,24,213.00
2019,10,08,12,25,522.40
2019,10,08,12,26,577.10
2019,10,08,12,27,579.20
2019,10,08,12,28,564.00
2019,10,08,12,29,552.40
2019,10,08,12,30,581.80
2019,10,08,12,31,580.00
2019,10,08,12,32,580.00
2019,10,08,12,33,606.80
2019,10,08,12,34,635.00
2019,10,08,12,35,635.00
2019,10,08,12,36,629.20
2019,10,08,12,37,622.00
2019,10,08,12,38,622.00
2019,10,08,12,39,590.00
2019,10,08,12,40,593.80
2019,10,08,12,41,559.00
2019,10,08,12,42,570.10
2019,10,08,12,43,596.00
2019,10,08,12,44,596.00
2019,10,08,12,45,596.00
2019,10,08,12,46,596.00
2019,10,08,12,47,596.00
2019,10,08,12,48,596.00
2019,10,08,12,49,498.70
2019,10,08,12,50,279.90
2019,10,08,12,51,273.20
2019,10,08,12,52,276.00
2019,10,08,12,53,254.10
2019,10,08,12,54,229.10
2019,10,08,12,55,211.00
2019,10,08,12,56,211.00
2019,10,08,12,57,208.10
2019,10,08,12,58,204.00
2019,10,08,12,59,204.00
2019,10,08,13,00,206.40
2019,10,08,13,01,210.20
2019,10,08,13,02,271.00
2019,10,08,13,03,271.00
2019,10,08,13,04,271.00
2019,10,08,13,05,279.80
2019,10,08,13,06,287.00
2019,10,08,13,07,287.00
2019,10,08,13,08,162.30
2019,10,08,13,09,164.00
2019,10,08,13,10,192.10
2019,10,08,13,11,239.00
2019,10,08,13,12,239.00
2019,10,08,13,13,239.00
2019,10,08,13,14,239.00
2019,10,08,13,15,239.00
2019,10,08,13,16,219.40
2019,10,08,13,17,143.90
2019,10,08,13,18,134.30
2019,10,08,13,19,120.80
2019,10,08,13,20,116.00
2019,10,08,13,21,101.60
2019,10,08,13,22,98.00
2019,10,08,13,23,98.00
2019,10,08,13,24,98.00
2019,10,08,13,25,90.90
2019,10,08,13,26,81.80
2019,10,08,13,27,79.60
2019,10,08,13,28,79.00
2019,10,08,13,29,78.90
2019,10,08,13,30,77.00
2019,10,08,13,31,77.00
2019,10,08,13,32,76.60
2019,10,08,13,33,76.00
2019,10,08,13,34,76.70
2019,10,08,13,35,80.20
2019,10,08,13,36,83.80
2019,10,08,13,37,86.60
2019,10,08,13,38,99.40
2019,10,08,13,39,104.00
2019,10,08,13,40,104.00
2019,10,08,13,41,118.70
2019,10,08,13,42,125.00
2019,10,08,13,43,143.10
2019,10,08,13,44,149.00
2019,10,08,13,45,169.00
2019,10,08,13,46,169.00
2019,10,08,13,47,169.00
2019,10,08,13,48,169.00
2019,10,08,13,49,169.00
2019,10,08,13,50,178.50
2019,10,08,13,51,167.00
2019,10,08,13,52,167.00
2019,10,08,13,53,135.50
2019,10,08,13,54,90.90
2019,10,08,13,55,81.40
2019,10,08,13,56,76.60
2019,10,08,13,57,74.10
2019,10,08,13,58,73.60
2019,10,08,13,59,72.60
2019,10,08,14,00,74.00
2019,10,08,14,01,78.20
2019,10,08,14,02,81.00
2019,10,08,14,03,81.00
2019,10,08,14,04,100.00
2019,10,08,14,05,104.20
2019,10,08,14,06,123.20
2019,10,08,14,07,129.70
2019,10,08,14,08,132.00
2019,10,08,14,09,132.00
2019,10,08,14,10,134.40
2019,10,08,14,11,138.90
2019,10,08,14,12,142.00
2019,10,08,14,13,143.40
2019,10,08,14,14,144.10
2019,10,08,14,15,142.00
2019,10,08,14,16,143.40
2019,10,08,14,17,149.90
2019,10,08,14,18,151.00
2019,10,08,14,19,159.80
2019,10,08,14,20,197.90
2019,10,08,14,21,207.00
2019,10,08,14,22,199.30
2019,10,08,14,23,191.10
2019,10,08,14,24,190.00
2019,10,08,14,25,190.20
2019,10,08,14,26,195.00
2019,10,08,14,27,194.40
2019,10,08,14,28,192.60
2019,10,08,14,29,192.00
2019,10,08,14,30,192.00
2019,10,08,14,31,192.00
2019,10,08,14,32,192.00
2019,10,08,14,33,192.20
2019,10,08,14,34,195.00
2019,10,08,14,35,205.80
2019,10,08,14,36,214.00
2019,10,08,14,37,214.00
2019,10,08,14,38,315.60
2019,10,08,14,39,334.00
2019,10,08,14,40,271.00
2019,10,08,14,41,263.50
2019,10,08,14,42,246.00
2019,10,08,14,43,246.00
2019,10,08,14,44,246.00
2019,10,08,14,45,299.60
2019,10,08,14,46,297.80
2019,10,08,14,47,350.80
2019,10,08,14,48,563.30
2019,10,08,14,49,557.00
2019,10,08,14,50,549.80
2019,10,08,14,51,545.00
2019,10,08,14,52,541.60
2019,10,08,14,53,541.00
2019,10,08,14,54,540.80
2019,10,08,14,55,538.10
2019,10,08,14,56,530.80
2019,10,08,14,57,527.00
2019,10,08,14,58,527.00
2019,10,08,14,59,527.00
2019,10,08,15,00,493.70
2019,10,08,15,01,490.00
2019,10,08,15,02,490.00
2019,10,08,15,03,482.40
2019,10,08,15,04,470.60
2019,10,08,15,05,466.90
2019,10,08,15,06,464.30
2019,10,08,15,07,463.70
2019,10,08,15,08,461.00
2019,10,08,15,09,459.70
2019,10,08,15,10,457.00
2019,10,08,15,11,455.90
2019,10,08,15,12,455.00
2019,10,08,15,13,455.00
2019,10,08,15,14,455.00
2019,10,08,15,15,455.00
2019,10,08,15,16,456.30
2019,10,08,15,17,460.40
2019,10,08,15,18,462.00
2019,10,08,15,19,474.60
2019,10,08,15,20,488.10
2019,10,08,15,21,492.50
2019,10,08,15,22,515.00
2019,10,08,15,23,515.00
2019,10,08,15,24,519.80
2019,10,08,15,25,487.40
2019,10,08,15,26,455.00
2019,10,08,15,27,198.30
2019,10,08,15,28,138.50
2019,10,08,15,29,124.80
2019,10,08,15,30,113.60
2019,10,08,15,31,109.00
2019,10,08,15,32,100.60
2019,10,08,15,33,95.00
2019,10,08,15,34,95.00
2019,10,08,15,35,79.80
2019,10,08,15,36,77.30
2019,10,08,15,37,70.00
2019,10,08,15,38,70.00
2019,10,08,15,39,70.00
2019,10,08,15,40,70.00
2019,10,08,15,41,64.10
2019,10,08,15,42,67.20
2019,10,08,15,43,75.00
2019,10,08,15,44,82.30
2019,10,08,15,45,96.00
2019,10,08,15,46,116.40
2019,10,08,15,47,125.00
2019,10,08,15,48,159.00
2019,10,08,15,49,166.10
2019,10,08,15,50,184.20
2019,10,08,15,51,177.00
2019,10,08,15,52,160.50
2019,10,08,15,53,151.00
2019,10,08,15,54,151.00
2019,10,08,15,55,151.00
2019,10,08,15,56,87.30
2019,10,08,15,57,84.00
2019,10,08,15,58,84.00
2019,10,08,15,59,71.10
2019,10,08,16,00,53.40
2019,10,08,16,01,53.00
2019,10,08,16,02,53.00
2019,10,08,16,03,56.50
2019,10,08,16,04,63.50
2019,10,08,16,05,70.50
2019,10,08,16,06,76.10
2019,10,08,16,07,81.40
2019,10,08,16,08,83.00
2019,10,08,16,09,85.60
2019,10,08,16,10,86.00
2019,10,08,16,11,86.00
2019,10,08,16,12,86.60
2019,10,08,16,13,88.00
2019,10,08,16,14,88.00
2019,10,08,16,15,88.00
2019,10,08,16,16,96.50
2019,10,08,16,17,98.20
2019,10,08,16,18,102.00
2019,10,08,16,19,104.20
2019,10,08,16,20,109.00
2019,10,08,16,21,109.00
2019,10,08,16,22,123.40
2019,10,08,16,23,135.60
2019,10,08,16,24,143.50
2019,10,08,16,25,148.60
2019,10,08,16,26,151.00
2019,10,08,16,27,150.10
2019,10,08,16,28,147.30
2019,10,08,16,29,142.50
2019,10,08,16,30,137.80
2019,10,08,16,31,135.10
2019,10,08,16,32,137.90
2019,10,08,16,33,149.00
2019,10,08,16,34,148.60
2019,10,08,16,35,148.00
2019,10,08,16,36,266.00
2019,10,08,16,37,270.30
2019,10,08,16,38,261.90
2019,10,08,16,39,286.40
2019,10,08,16,40,214.60
2019,10,08,16,41,149.10
2019,10,08,16,42,137.00
2019,10,08,16,43,137.00
2019,10,08,16,44,137.00
2019,10,08,16,45,137.00
2019,10,08,16,46,174.00
2019,10,08,16,47,317.50
2019,10,08,16,48,309.90
2019,10,08,16,49,284.60
2019,10,08,16,50,267.00
2019,10,08,16,51,247.60
2019,10,08,16,52,240.20
2019,10,08,16,53,195.00
2019,10,08,16,54,191.40
2019,10,08,16,55,255.90
2019,10,08,16,56,269.00
2019,10,08,16,57,269.00
2019,10,08,16,58,242.60
2019,10,08,16,59,205.00
2019,10,08,17,00,163.50
2019,10,08,17,01,98.00
2019,10,08,17,02,98.00
2019,10,08,17,03,98.00
2019,10,08,17,04,87.50
2019,10,08,17,05,83.00
2019,10,08,17,06,83.00
2019,10,08,17,07,83.00
2019,10,08,17,08,83.00
2019,10,08,17,09,131.90
2019,10,08,17,10,195.80
2019,10,08,17,11,195.00
2019,10,08,17,12,192.40
2019,10,08,17,13,190.00
2019,10,08,17,14,190.00
2019,10,08,17,15,190.00
2019,10,08,17,16,190.00
2019,10,08,17,17,187.70
2019,10,08,17,18,186.00
2019,10,08,17,19,181.80
2019,10,08,17,20,180.00
2019,10,08,17,21,169.50
2019,10,08,17,22,165.00
2019,10,08,17,23,160.90